Terminal Aerodrome Forecast
Issued by NWS Miami, FL

Home | Current Version | Previous Version | Text Only | Print | Product List | Glossary On
Versions: 1 2 3 4 5 6 7 8 9 10 11 12 13 14 15 16 17 18 19 20 21 22 23 24 25 26 27 28 29 30 31 32 33 34 35 36 37 38 39 40 41 42 43 44 45
000
FTUS42 KMFL 310908 AAA
TAFPBI
TAF AMD
KPBI 310908Z 3109/0106 VRB03KT P6SM SCT190
     FM311400 19007KT P6SM VCSH SCT035
     FM311800 19012KT P6SM VCTS SCT035CB BKN050
      TEMPO 3119/3122 VRB10G20KT 6SM TSRA BKN035CB
     FM010200 VRB04KT P6SM FEW030 BKN150=

USA.gov is the U.S. government's official web portal to all federal, state and local government web resources and services.